Weather History for KIRK - April, 2013

Change the Weather History Date:

Saturday, April 20, 2013

  Actual Average Record
Temperature  
Mean Temperature 37 °F 53 °F  
Max Temperature 51 °F 64 °F - ()
Min Temperature 23 °F 42 °F - ()
Degree Days  
Heating Degree Days 28 12  
Month to date heating degree days 361 300  
Since 1 July heating degree days 5723 5587  
Cooling Degree Days 0 0  
Month to date cooling degree days 3 0  
Year to date cooling degree days 3 0  
Moisture  
Dew Point 25 °F    
Average Humidity 64    
Maximum Humidity 92    
Minimum Humidity 36    
Precipitation  
Precipitation 0.00 in 0.16 in - ()
Month to date precipitation 6.49 2.20  
Year to date precipitation 15.28 7.55  
Sea Level Pressure  
Sea Level Pressure 30.26 in    
Wind  
Wind Speed 6 mph (NE)    
Max Wind Speed 12 mph    
Max Gust Speed 14 mph    
Visibility 10 miles    
Events      
T = Trace of Precipitation, MM = Missing Value Source: NWS Daily Summary

Daily Weather History Graph

Daily Weather History Graph

Search for Another Location

Airport or City:

Trip Planner

Search our weather history database for the weather conditions in past years. The results will help you decide how hot, cold, wet, or windy it might be!

Date:

Astronomy

Apr. 20, 2013 Rise Set
Actual Time 6:24 AM CDT 7:54 PM CDT
Civil Twilight 5:56 AM CDT 8:22 PM CDT
Nautical Twilight 5:21 AM CDT 8:57 PM CDT
Astronomical Twilight 4:45 AM CDT 9:33 PM CDT
Moon 2:38 PM CDT (4/20) 3:14 AM CDT (4/20)
Length of Visible Light 14h 26m
Length of Day
13h 29m
Waxing Gibbous, 71% of the Moon is Illuminated
Apr 20
Waxing Gibbous
Apr 25
Full
May 2
Last Quarter
May 9
New
May 17
First Quarter

Hourly Weather History & Observations

Time (CDT) Temp. Windchill Dew Point Humidity Pressure Visibility Wind Dir Wind Speed Gust Speed Precip Events Conditions
12:55 AM 33.1 °F 26.9 °F 24.1 °F 70% 30.12 in 10.0 mi NW 6.9 mph - N/A   Clear
1:55 AM 32.0 °F 27.5 °F 24.1 °F 73% 30.13 in 10.0 mi NNW 4.6 mph - N/A   Clear
2:55 AM 27.0 °F 23.0 °F 24.1 °F 89% 30.15 in 10.0 mi NW 3.5 mph - N/A   Clear
3:55 AM 28.0 °F 24.2 °F 23.0 °F 81% 30.17 in 10.0 mi WNW 3.5 mph - N/A   Clear
4:55 AM 28.0 °F 22.8 °F 23.0 °F 81% 30.17 in 10.0 mi NW 4.6 mph - N/A   Clear
5:55 AM 24.1 °F 19.7 °F 21.0 °F 88% 30.21 in 10.0 mi SW 3.5 mph - N/A   Clear
6:55 AM 25.0 °F 19.3 °F 21.9 °F 88% 30.24 in 10.0 mi SW 4.6 mph - N/A   Clear
7:55 AM 32.0 °F 26.4 °F 26.1 °F 79% 30.26 in 10.0 mi NW 5.8 mph - N/A   Clear
8:55 AM 35.1 °F 30.1 °F 26.1 °F 70% 30.28 in 10.0 mi North 5.8 mph - N/A   Clear
9:55 AM 37.9 °F 34.4 °F 23.0 °F 55% 30.31 in 10.0 mi WNW 4.6 mph - N/A   Clear
10:55 AM 41.0 °F 37.1 °F 25.0 °F 53% 30.32 in 10.0 mi NNW 5.8 mph - N/A   Clear
11:55 AM 43.0 °F 38.8 °F 25.0 °F 49% 30.32 in 10.0 mi East 6.9 mph - N/A   Clear
12:55 PM 45.0 °F 43.5 °F 25.0 °F 46% 30.30 in 10.0 mi ESE 3.5 mph - N/A   Clear
1:55 PM 46.9 °F - 24.1 °F 41% 30.30 in 10.0 mi Variable 3.5 mph - N/A   Clear
2:55 PM 48.0 °F - 24.1 °F 39% 30.29 in 10.0 mi Calm Calm - N/A   Clear
3:55 PM 50.0 °F - 24.1 °F 36% 30.26 in 10.0 mi SE 4.6 mph - N/A   Scattered Clouds
4:55 PM 50.0 °F - 26.1 °F 39% 30.25 in 10.0 mi ESE 8.1 mph - N/A   Scattered Clouds
5:55 PM 48.9 °F - 25.0 °F 39% 30.27 in 10.0 mi East 5.8 mph - N/A   Overcast
6:55 PM 46.9 °F - 27.0 °F 46% 30.27 in 10.0 mi East 9.2 mph - N/A   Partly Cloudy
7:55 PM 45.0 °F 41.8 °F 27.0 °F 49% 30.28 in 10.0 mi East 5.8 mph - N/A   Overcast
8:55 PM 43.0 °F 38.8 °F 30.0 °F 60% 30.30 in 10.0 mi East 6.9 mph - N/A   Clear
9:55 PM 43.0 °F 39.5 °F 30.0 °F 60% 30.32 in 10.0 mi East 5.8 mph - N/A   Partly Cloudy
10:55 PM 43.0 °F 37.7 °F 28.9 °F 58% 30.32 in 10.0 mi ESE 9.2 mph - N/A   Partly Cloudy
11:55 PM 42.1 °F 37.7 °F 30.0 °F 62% 30.31 in 10.0 mi East 6.9 mph - N/A   Mostly Cloudy